Location: Cargill Incorporated Elevator
(42.7294°N, 93.7333°W)
Time: 05:40:36
(UTC+00:00)

SKYMED 2 - Pass Details

Date: 19 January 2026
Orbit: 622 x 624 km, 97.9° (Epoch: 15 February)

Event Time Altitude Azimuth Distance (km) Brightness Sun altitude
Rises 12:08:31 0° 191° (S) 2,890 7.0 -16.7°
Reaches altitude 10° 12:10:55 10° 202° (SSW) 1,989 6.1 -16.2°
Maximum altitude 12:14:43 30° 264° (W) 1,121 4.3 -15.5°
Enters shadow 12:15:56 26° 294° (WNW) 1,237 4.5 -15.3°
